Погода в Кузьме

Россия / Удмуртская Республика     57°56′24″N   54°01′58″E
темп.,
°C
ветер,
м/с
пор.,
м/с
влажн.,
%
обл.,
%
осадки,
мм/ч
давл.,
гПа
погр.,
м
24 июня, чт
чт2401:00+15ю11925 0.0 102011
04:00+15юз119235 0.0 102011
07:00+21юз12745 0.0 1019276
10:00+26з23585 0.0 10181033
13:00+28зсз2448100 0.1 10162223
16:00+27ю345996 0.2 1015371
19:00+22св1288100 1.0 101564
22:00+18юз3796100 4.3 1014208
25 июня, пт
пт2501:00+17зсз2129787 0.0 1013246
04:00+17з279871 0.1 1013167
07:00+21зсз388899 0.1 1013257
10:00+28сз24515 0.1 1012745
13:00+32зсз364081 0.0 10112211
16:00+32сз463680 0.0 10102653
19:00+28зсз49612 0.0 1009457
22:00+18сз249582 2.8 101077
26 июня, сб
сб2601:00+16з369894 2.8 1011132
04:00+16зсз259874 2.8 1010111
07:00+20сз36891 0.0 1010294
10:00+25с24590 0.0 1010955
13:00+29ссз344782 0.0 10102107
16:00+28зсз135395 0.0 1009959
19:00+25сз236627 0.0 100976
22:00+21ссз127379 0.0 100912
27 июня, вс
вс2701:00+18с22830 0.0 101016
04:00+16с238995 0.0 101154
07:00+21с2473100 0.0 1012252
10:00+24ссв245726 0.0 10121025
13:00+27ссв34453 0.0 10121965
16:00+27ссв344140 0.0 10131999
19:00+24в255931 0.0 1013174
22:00+21в2563100 0.0 1014104
28 июня, пн
пн2801:00+19в2368100 0.0 101570
04:00+18в2468100 0.0 1016100
07:00+21вюв25610 0.0 1017276
10:00+25юв234051 0.0 10171018
13:00+27вюв223697 0.0 10161816
16:00+28вюв113697 0.0 10162301
19:00+24юв226095 0.0 101648
22:00+19ю1166100 0.0 101511